Stündliche Wetter Cayo Jutías

Heute, 29 Oktober, Donnerstag

Zeit Temperatur Niederschläge Wind Luftdruck Luftfeuchtigkeit
00:00 +26°C° 0 mm 2 m/S 759 mmHg 96%
01:00 +26°C° 0 mm 2 m/S 759 mmHg 96%
02:00 +26°C° 0 mm 2 m/S 758 mmHg 97%
03:00 +25°C° 0 mm 2 m/S 758 mmHg 97%
04:00 +25°C° 0 mm 2 m/S 759 mmHg 97%
05:00 +26°C° 0 mm 2 m/S 759 mmHg 97%
06:00 +26°C° 0 mm 1 m/S 759 mmHg 97%
07:00 +28°C° 0 mm 1 m/S 759 mmHg 88%
08:00 +30°C° 0 mm 1 m/S 760 mmHg 78%
09:00 +32°C° 0 mm 1 m/S 760 mmHg 69%
10:00 +32°C° 0.3 mm 1 m/S 759 mmHg 70%
11:00 +32°C° 0.3 mm 1 m/S 759 mmHg 71%
12:00 +32°C° 0.3 mm 1 m/S 759 mmHg 72%
13:00 +32°C° 0.5 mm 2 m/S 758 mmHg 75%
14:00 +31°C° 0.5 mm 2 m/S 758 mmHg 79%
15:00 +30°C° 0.5 mm 2 m/S 758 mmHg 82%
16:00 +29°C° 0.5 mm 2 m/S 758 mmHg 86%
17:00 +28°C° 0.5 mm 2 m/S 758 mmHg 89%
18:00 +27°C° 0.5 mm 3 m/S 759 mmHg 93%
19:00 +27°C° 0.2 mm 3 m/S 759 mmHg 93%
20:00 +26°C° 0.2 mm 3 m/S 759 mmHg 94%
21:00 +26°C° 0.2 mm 3 m/S 760 mmHg 95%
22:00 +26°C° 0 mm 3 m/S 759 mmHg 95%
23:00 +26°C° 0 mm 3 m/S 759 mmHg 95%

Morgen, 30 Oktober, Freitag

Zeit Temperatur Niederschläge Wind Luftdruck Luftfeuchtigkeit
00:00 +26°C° 0 mm 3 m/S 759 mmHg 96%
01:00 +26°C° 0 mm 3 m/S 759 mmHg 96%
02:00 +26°C° 0 mm 3 m/S 759 mmHg 96%
03:00 +26°C° 0 mm 3 m/S 758 mmHg 96%
04:00 +26°C° 0 mm 3 m/S 759 mmHg 96%
05:00 +26°C° 0 mm 3 m/S 759 mmHg 96%
06:00 +26°C° 0 mm 4 m/S 759 mmHg 96%
07:00 +27°C° 0 mm 4 m/S 759 mmHg 89%
08:00 +29°C° 0 mm 4 m/S 760 mmHg 83%
09:00 +32°C° 0 mm 4 m/S 760 mmHg 76%
10:00 +32°C° 0.1 mm 4 m/S 760 mmHg 75%
11:00 +32°C° 0.1 mm 4 m/S 759 mmHg 73%
12:00 +33°C° 0.1 mm 4 m/S 759 mmHg 72%
13:00 +32°C° 0.3 mm 4 m/S 759 mmHg 74%
14:00 +32°C° 0.3 mm 5 m/S 759 mmHg 76%
15:00 +32°C° 0.3 mm 5 m/S 758 mmHg 78%
16:00 +29°C° 0.3 mm 5 m/S 759 mmHg 84%
17:00 +28°C° 0.3 mm 6 m/S 759 mmHg 89%
18:00 +27°C° 0.3 mm 6 m/S 760 mmHg 94%
19:00 +27°C° 0.4 mm 6 m/S 760 mmHg 95%
20:00 +26°C° 0.4 mm 6 m/S 760 mmHg 95%
21:00 +26°C° 0.4 mm 6 m/S 761 mmHg 96%
22:00 +26°C° 0.3 mm 6 m/S 761 mmHg 96%
23:00 +26°C° 0.3 mm 6 m/S 761 mmHg 96%

übermorgen, 31 Oktober, Samstag

Zeit Temperatur Niederschläge Wind Luftdruck Luftfeuchtigkeit
00:00 +26°C° 0.3 mm 6 m/S 761 mmHg 97%
01:00 +26°C° 0.1 mm 6 m/S 761 mmHg 97%
02:00 +26°C° 0.1 mm 6 m/S 760 mmHg 97%
03:00 +26°C° 0.1 mm 6 m/S 760 mmHg 97%
04:00 +24°C° 0 mm 6 m/S 760 mmHg 97%
05:00 +25°C° 0 mm 5 m/S 761 mmHg 97%
06:00 +25°C° 0 mm 5 m/S 761 mmHg 97%
07:00 +27°C° 0.1 mm 5 m/S 761 mmHg 92%
08:00 +28°C° 0.1 mm 5 m/S 761 mmHg 88%
09:00 +29°C° 0.1 mm 5 m/S 762 mmHg 83%
10:00 +29°C° 0.4 mm 6 m/S 761 mmHg 83%
11:00 +30°C° 0.4 mm 6 m/S 761 mmHg 83%
12:00 +30°C° 0.4 mm 6 m/S 761 mmHg 83%
13:00 +30°C° 1 mm 6 m/S 760 mmHg 85%
14:00 +29°C° 1 mm 6 m/S 760 mmHg 86%
15:00 +29°C° 1 mm 5 m/S 760 mmHg 88%
16:00 +28°C° 1 mm 5 m/S 760 mmHg 90%
17:00 +27°C° 1 mm 5 m/S 760 mmHg 92%
18:00 +26°C° 1 mm 4 m/S 761 mmHg 94%
19:00 +26°C° 0.9 mm 5 m/S 761 mmHg 94%
20:00 +26°C° 0.9 mm 5 m/S 761 mmHg 95%
21:00 +26°C° 0.9 mm 5 m/S 761 mmHg 95%
22:00 +25°C° 0.3 mm 4 m/S 761 mmHg 96%
23:00 +25°C° 0.3 mm 4 m/S 761 mmHg 96%

1 November, Sonntag

Zeit Temperatur Niederschläge Wind Luftdruck Luftfeuchtigkeit
00:00 +25°C° 0.3 mm 4 m/S 761 mmHg 96%
01:00 +25°C° 0 mm 3 m/S 761 mmHg 97%
02:00 +24°C° 0 mm 3 m/S 760 mmHg 97%
03:00 +24°C° 0 mm 3 m/S 760 mmHg 97%
04:00 +24°C° 0 mm 3 m/S 761 mmHg 96%
05:00 +24°C° 0 mm 3 m/S 761 mmHg 96%
06:00 +24°C° 0 mm 3 m/S 761 mmHg 96%
07:00 +26°C° 0.1 mm 3 m/S 761 mmHg 90%
08:00 +28°C° 0.1 mm 4 m/S 761 mmHg 83%
09:00 +30°C° 0.1 mm 4 m/S 762 mmHg 77%
10:00 +32°C° 0.2 mm 4 m/S 761 mmHg 71%
11:00 +33°C° 0.2 mm 5 m/S 761 mmHg 65%
12:00 +34°C° 0.2 mm 5 m/S 760 mmHg 59%
13:00 +33°C° 0.2 mm 6 m/S 760 mmHg 64%
14:00 +32°C° 0.2 mm 6 m/S 760 mmHg 70%
15:00 +32°C° 0.2 mm 6 m/S 759 mmHg 76%
16:00 +29°C° 0.2 mm 7 m/S 760 mmHg 82%
17:00 +28°C° 0.2 mm 7 m/S 760 mmHg 88%
18:00 +27°C° 0.2 mm 7 m/S 760 mmHg 94%
19:00 +27°C° 0.4 mm 7 m/S 761 mmHg 94%
20:00 +27°C° 0.4 mm 7 m/S 761 mmHg 94%
21:00 +26°C° 0.4 mm 7 m/S 761 mmHg 94%
22:00 +27°C° 0.1 mm 7 m/S 761 mmHg 93%
23:00 +27°C° 0.1 mm 7 m/S 761 mmHg 93%

2 November, Montag

Zeit Temperatur Niederschläge Wind Luftdruck Luftfeuchtigkeit
00:00 +27°C° 0.1 mm 7 m/S 760 mmHg 92%
01:00 +27°C° 0.1 mm 8 m/S 760 mmHg 92%
02:00 +27°C° 0.1 mm 8 m/S 760 mmHg 92%
03:00 +27°C° 0.1 mm 8 m/S 760 mmHg 91%
04:00 +27°C° 0.6 mm 9 m/S 760 mmHg 91%
05:00 +26°C° 0.6 mm 9 m/S 760 mmHg 92%
06:00 +26°C° 0.6 mm 9 m/S 761 mmHg 92%
07:00 +27°C° 0.9 mm 9 m/S 761 mmHg 89%
08:00 +28°C° 0.9 mm 10 m/S 761 mmHg 85%
09:00 +29°C° 0.9 mm 10 m/S 762 mmHg 82%
10:00 +29°C° 0.7 mm 10 m/S 761 mmHg 81%
11:00 +29°C° 0.7 mm 11 m/S 761 mmHg 80%
12:00 +29°C° 0.7 mm 11 m/S 761 mmHg 79%
13:00 +29°C° 0.2 mm 11 m/S 761 mmHg 78%
14:00 +28°C° 0.2 mm 11 m/S 760 mmHg 77%
15:00 +28°C° 0.2 mm 12 m/S 760 mmHg 76%
16:00 +27°C° 0.1 mm 11 m/S 760 mmHg 78%
17:00 +27°C° 0.1 mm 11 m/S 761 mmHg 81%
18:00 +26°C° 0.1 mm 11 m/S 761 mmHg 84%
19:00 +26°C° 0.2 mm 11 m/S 762 mmHg 84%
20:00 +26°C° 0.2 mm 12 m/S 762 mmHg 84%
21:00 +26°C° 0.2 mm 12 m/S 762 mmHg 84%
22:00 +26°C° 0.1 mm 12 m/S 762 mmHg 83%
23:00 +24°C° 0.1 mm 12 m/S 762 mmHg 83%

3 November, Dienstag

Zeit Temperatur Niederschläge Wind Luftdruck Luftfeuchtigkeit
00:00 +24°C° 0.1 mm 12 m/S 762 mmHg 82%
01:00 +24°C° 0.1 mm 12 m/S 762 mmHg 82%
02:00 +24°C° 0.1 mm 12 m/S 762 mmHg 82%
03:00 +23°C° 0.1 mm 11 m/S 762 mmHg 81%
04:00 +23°C° 0.1 mm 11 m/S 762 mmHg 82%
05:00 +24°C° 0.1 mm 11 m/S 762 mmHg 83%
06:00 +24°C° 0.1 mm 11 m/S 762 mmHg 83%
07:00 +26°C° 0.1 mm 11 m/S 763 mmHg 79%
08:00 +27°C° 0.1 mm 11 m/S 763 mmHg 75%
09:00 +28°C° 0.1 mm 11 m/S 763 mmHg 72%
10:00 +28°C° 0.1 mm 11 m/S 763 mmHg 70%
11:00 +28°C° 0.1 mm 11 m/S 763 mmHg 69%
12:00 +29°C° 0.1 mm 11 m/S 763 mmHg 67%
13:00 +28°C° 0.1 mm 11 m/S 762 mmHg 68%
14:00 +28°C° 0.1 mm 11 m/S 762 mmHg 70%
15:00 +28°C° 0.1 mm 11 m/S 762 mmHg 72%
16:00 +27°C° 0.1 mm 11 m/S 762 mmHg 75%
17:00 +26°C° 0.1 mm 11 m/S 762 mmHg 79%
18:00 +24°C° 0.1 mm 11 m/S 762 mmHg 82%
19:00 +23°C° 0.1 mm 11 m/S 763 mmHg 84%
20:00 +23°C° 0.1 mm 11 m/S 763 mmHg 85%
21:00 +23°C° 0.1 mm 11 m/S 763 mmHg 86%
22:00 +23°C° 0.1 mm 10 m/S 763 mmHg 86%
23:00 +23°C° 0.1 mm 10 m/S 763 mmHg 86%
Mehr zeigen